| time (UTC) | temp C | wind direction | speed KPH | gust KPH | rain 1hr cm | rain 24hr cm | rain mn cm | humidity % | barometer mb |
| 20260506110518 | 23 | 0 | 0.0 | 1.6 | 0.00 | 0.00 | 0.00 | 90 | 1007.9 |
| 20260506110036 | 23 | 0 | 0.0 | 4.8 | 0.00 | 0.00 | 0.00 | 90 | 1007.9 |
| 20260506105515 | 23 | 0 | 0.0 | 6.4 | 0.00 | 0.00 | 0.00 | 90 | 1007.9 |
| 20260506105015 | 23 | 180 | 1.6 | 6.4 | 0.00 | 0.00 | 0.00 | 90 | 1007.7 |
| 20260506104536 | 23 | 155 | 1.6 | 6.4 | 0.00 | 0.00 | 0.00 | 90 | 1007.5 |
| 20260506104016 | 23 | 0 | 1.6 | 9.7 | 0.00 | 0.00 | 0.00 | 90 | 1007.5 |
| 20260506103520 | 23 | 139 | 1.6 | 9.7 | 0.00 | 0.00 | 0.00 | 90 | 1007.5 |
| 20260506103033 | 23 | 198 | 3.2 | 9.7 | 0.00 | 0.00 | 0.00 | 90 | 1007.4 |
| 20260506102517 | 23 | 157 | 3.2 | 9.7 | 0.00 | 0.00 | 0.00 | 90 | 1007.3 |
| 20260506102017 | 23 | 0 | 1.6 | 9.7 | 0.00 | 0.00 | 0.00 | 90 | 1007.4 |
| 20260506101534 | 23 | 190 | 3.2 | 9.7 | 0.00 | 0.00 | 0.00 | 90 | 1007.5 |
| 20260506101016 | 23 | 138 | 1.6 | 9.7 | 0.00 | 0.00 | 0.00 | 90 | 1007.4 |
| 20260506100516 | 23 | 154 | 0.0 | 9.7 | 0.00 | 0.00 | 0.00 | 90 | 1007.2 |
| 20260506100035 | 23 | 128 | 1.6 | 8.0 | 0.00 | 0.00 | 0.00 | 91 | 1007.4 |
| 20260506095516 | 23 | 0 | 1.6 | 8.0 | 0.00 | 0.00 | 0.00 | 91 | 1007.3 |
| 20260506095016 | 23 | 198 | 0.0 | 6.4 | 0.00 | 0.00 | 0.00 | 91 | 1007.2 |
| 20260506094536 | 23 | 100 | 1.6 | 8.0 | 0.00 | 0.00 | 0.00 | 91 | 1007.1 |
| 20260506094016 | 23 | 156 | 1.6 | 8.0 | 0.00 | 0.00 | 0.00 | 91 | 1007.0 |
| 20260506093516 | 23 | 190 | 1.6 | 12.9 | 0.00 | 0.00 | 0.00 | 91 | 1007.0 |
| 20260506093036 | 23 | 175 | 1.6 | 12.9 | 0.00 | 0.00 | 0.00 | 91 | 1007.0 |
| 20260506092517 | 23 | 131 | 3.2 | 12.9 | 0.00 | 0.00 | 0.00 | 91 | 1006.9 |
| 20260506092017 | 23 | 180 | 3.2 | 9.7 | 0.00 | 0.00 | 0.00 | 91 | 1006.9 |
| 20260506091532 | 23 | 170 | 1.6 | 9.7 | 0.00 | 0.00 | 0.00 | 91 | 1006.9 |
| 20260506091016 | 23 | 147 | 3.2 | 9.7 | 0.00 | 0.00 | 0.00 | 91 | 1006.9 |
| 20260506090516 | 23 | 144 | 1.6 | 9.7 | 0.00 | 0.00 | 0.00 | 90 | 1006.9 |
| 20260506090031 | 23 | 159 | 3.2 | 9.7 | 0.00 | 0.00 | 0.00 | 91 | 1006.9 |
| 20260506085519 | 23 | 168 | 1.6 | 8.0 | 0.00 | 0.00 | 0.00 | 90 | 1006.9 |
| 20260506085019 | 23 | 0 | 1.6 | 8.0 | 0.00 | 0.00 | 0.00 | 90 | 1006.9 |
| 20260506084534 | 23 | 182 | 1.6 | 11.3 | 0.00 | 0.00 | 0.00 | 90 | 1006.9 |
| 20260506084018 | 23 | 209 | 1.6 | 11.3 | 0.00 | 0.00 | 0.00 | 90 | 1006.9 |
| 20260506083600 | 24 | 0 | 1.6 | 12.9 | 0.00 | 0.00 | 0.00 | 90 | 1006.9 |
| 20260506083037 | 24 | 0 | 3.2 | 12.9 | 0.00 | 0.00 | 0.00 | 90 | 1006.9 |
| 20260506082516 | 24 | 166 | 3.2 | 12.9 | 0.00 | 0.00 | 0.00 | 90 | 1006.9 |
| 20260506082016 | 24 | 163 | 3.2 | 14.5 | 0.00 | 0.00 | 0.00 | 90 | 1006.9 |
| 20260506081545 | 24 | 165 | 6.4 | 14.5 | 0.00 | 0.00 | 0.00 | 90 | 1006.9 |
| 20260506081017 | 24 | 153 | 3.2 | 12.9 | 0.00 | 0.00 | 0.00 | 89 | 1006.9 |
| 20260506080520 | 24 | 191 | 3.2 | 11.3 | 0.00 | 0.00 | 0.00 | 89 | 1007.0 |
| 20260506073521 | 24 | 171 | 3.2 | 9.7 | 0.00 | 0.00 | 0.00 | 89 | 1007.5 |
| 20260506073034 | 24 | 192 | 1.6 | 11.3 | 0.00 | 0.00 | 0.00 | 89 | 1007.7 |
| 20260506072517 | 24 | 5 | 1.6 | 11.3 | 0.00 | 0.00 | 0.00 | 89 | 1007.7 |
| 20260506072016 | 24 | 170 | 1.6 | 9.7 | 0.00 | 0.00 | 0.00 | 89 | 1007.6 |
| 20260506071534 | 24 | 151 | 0.0 | 9.7 | 0.00 | 0.00 | 0.00 | 89 | 1007.8 |
| 20260506071017 | 24 | 243 | 1.6 | 9.7 | 0.00 | 0.00 | 0.00 | 89 | 1007.9 |
| 20260506070516 | 24 | 188 | 3.2 | 8.0 | 0.00 | 0.00 | 0.00 | 89 | 1007.9 |
| 20260506062516 | 25 | 173 | 3.2 | 11.3 | 0.00 | 0.00 | 0.00 | 88 | 1008.0 |
| 20260506062020 | 24 | 0 | 1.6 | 9.7 | 0.00 | 0.00 | 0.00 | 88 | 1008.0 |
| 20260506061538 | 25 | 128 | 1.6 | 11.3 | 0.00 | 0.00 | 0.00 | 87 | 1008.0 |
| 20260506061017 | 25 | 122 | 1.6 | 14.5 | 0.00 | 0.00 | 0.00 | 87 | 1008.0 |
| 20260506060520 | 25 | 157 | 4.8 | 14.5 | 0.00 | 0.00 | 0.00 | 87 | 1007.9 |
| 20260506051020 | 25 | 111 | 4.8 | 16.1 | 0.00 | 0.00 | 0.00 | 86 | 1007.8 |
| 20260506050519 | 25 | 188 | 4.8 | 16.1 | 0.00 | 0.00 | 0.00 | 86 | 1007.8 |
| 20260506045016 | 25 | 79 | 3.2 | 16.1 | 0.00 | 0.00 | 0.00 | 86 | 1007.8 |
| 20260506044539 | 25 | 179 | 1.6 | 19.3 | 0.00 | 0.00 | 0.00 | 86 | 1007.7 |
| 20260506044020 | 25 | 153 | 4.8 | 19.3 | 0.00 | 0.00 | 0.00 | 86 | 1007.6 |
| 20260506043516 | 25 | 186 | 3.2 | 12.9 | 0.00 | 0.00 | 0.00 | 86 | 1007.6 |
| 20260506043036 | 25 | 207 | 3.2 | 12.9 | 0.00 | 0.00 | 0.00 | 85 | 1007.5 |
| 20260506042517 | 25 | 119 | 3.2 | 14.5 | 0.00 | 0.00 | 0.00 | 85 | 1007.5 |
| 20260506042017 | 25 | 175 | 4.8 | 14.5 | 0.00 | 0.00 | 0.00 | 85 | 1007.5 |
| 20260506041538 | 25 | 165 | 3.2 | 11.3 | 0.00 | 0.00 | 0.00 | 85 | 1007.5 |
| 20260506041016 | 25 | 0 | 1.6 | 14.5 | 0.00 | 0.00 | 0.00 | 85 | 1007.7 |
| 20260506040521 | 25 | 168 | 3.2 | 14.5 | 0.00 | 0.00 | 0.00 | 85 | 1007.7 |
| 20260506040035 | 25 | 192 | 3.2 | 9.7 | 0.00 | 0.00 | 0.00 | 85 | 1007.7 |
| 20260506035517 | 25 | 199 | 3.2 | 11.3 | 0.00 | 0.00 | 0.00 | 85 | 1007.6 |
| 20260506035017 | 25 | 0 | 3.2 | 11.3 | 0.00 | 0.00 | 0.00 | 85 | 1007.6 |
| 20260506034541 | 25 | 147 | 4.8 | 11.3 | 0.00 | 0.00 | 0.00 | 85 | 1007.6 |
| 20260506034017 | 25 | 169 | 3.2 | 11.3 | 0.00 | 0.00 | 0.00 | 85 | 1007.5 |
| 20260506033516 | 25 | 144 | 0.0 | 11.3 | 0.00 | 0.00 | 0.00 | 84 | 1007.4 |
| 20260506033038 | 25 | 194 | 3.2 | 11.3 | 0.00 | 0.00 | 0.00 | 84 | 1007.3 |
| 20260506032516 | 25 | 94 | 1.6 | 9.7 | 0.00 | 0.00 | 0.00 | 84 | 1007.4 |
| 20260506032017 | 25 | 144 | 1.6 | 9.7 | 0.00 | 0.00 | 0.00 | 84 | 1007.4 |
| 20260506031539 | 25 | 207 | 3.2 | 11.3 | 0.00 | 0.00 | 0.00 | 84 | 1007.4 |
| 20260506031016 | 25 | 246 | 1.6 | 11.3 | 0.00 | 0.00 | 0.00 | 84 | 1007.4 |
| 20260506030520 | 25 | 213 | 3.2 | 11.3 | 0.00 | 0.00 | 0.00 | 83 | 1007.4 |
| 20260506030036 | 25 | 0 | 1.6 | 11.3 | 0.00 | 0.00 | 0.00 | 83 | 1007.3 |
| 20260506025522 | 25 | 178 | 3.2 | 9.7 | 0.00 | 0.00 | 0.00 | 83 | 1007.2 |
| 20260506025018 | 25 | 175 | 1.6 | 8.0 | 0.00 | 0.00 | 0.00 | 83 | 1007.2 |
| 20260506024547 | 25 | 138 | 3.2 | 11.3 | 0.00 | 0.00 | 0.00 | 83 | 1007.2 |
| 20260506024018 | 25 | 161 | 3.2 | 11.3 | 0.00 | 0.00 | 0.00 | 83 | 1007.1 |
| 20260506023519 | 25 | 189 | 3.2 | 9.7 | 0.00 | 0.00 | 0.00 | 83 | 1006.9 |
| 20260506023041 | 25 | 168 | 1.6 | 9.7 | 0.00 | 0.00 | 0.00 | 83 | 1006.8 |
| 20260506022523 | 25 | 95 | 3.2 | 9.7 | 0.00 | 0.00 | 0.00 | 83 | 1006.9 |
| 20260506022019 | 25 | 184 | 0.0 | 9.7 | 0.00 | 0.00 | 0.00 | 83 | 1006.7 |
| 20260506021536 | 25 | 133 | 1.6 | 9.7 | 0.00 | 0.00 | 0.00 | 83 | 1006.7 |
| 20260506021020 | 26 | 0 | 1.6 | 9.7 | 0.00 | 0.00 | 0.00 | 82 | 1006.6 |
| 20260506020518 | 26 | 166 | 3.2 | 9.7 | 0.00 | 0.00 | 0.00 | 82 | 1006.7 |
| 20260506020039 | 26 | 111 | 1.6 | 9.7 | 0.00 | 0.00 | 0.00 | 82 | 1006.7 |
| 20260506015519 | 26 | 142 | 1.6 | 9.7 | 0.00 | 0.00 | 0.00 | 82 | 1006.6 |
| 20260506015019 | 26 | 169 | 1.6 | 6.4 | 0.00 | 0.00 | 0.00 | 82 | 1006.5 |
| 20260506014534 | 26 | 182 | 1.6 | 6.4 | 0.00 | 0.00 | 0.00 | 82 | 1006.4 |
| 20260506014018 | 26 | 192 | 0.0 | 9.7 | 0.00 | 0.00 | 0.00 | 82 | 1006.3 |
| 20260506013518 | 26 | 155 | 1.6 | 9.7 | 0.00 | 0.00 | 0.00 | 82 | 1006.2 |
| 20260506013034 | 26 | 88 | 1.6 | 8.0 | 0.00 | 0.00 | 0.00 | 82 | 1006.1 |
| 20260506012519 | 26 | 184 | 0.0 | 9.7 | 0.00 | 0.00 | 0.00 | 81 | 1006.0 |
| 20260506012021 | 26 | 169 | 1.6 | 9.7 | 0.00 | 0.00 | 0.00 | 81 | 1006.0 |
| 20260506011600 | 26 | 167 | 0.0 | 11.3 | 0.00 | 0.00 | 0.00 | 81 | 1006.0 |
| 20260506011019 | 26 | 127 | 1.6 | 11.3 | 0.00 | 0.00 | 0.00 | 81 | 1005.8 |
| 20260506010520 | 26 | 105 | 3.2 | 12.9 | 0.00 | 0.00 | 0.00 | 81 | 1005.7 |
| 20260506010037 | 26 | 153 | 3.2 | 12.9 | 0.00 | 0.00 | 0.00 | 81 | 1005.9 |
| 20260506005519 | 26 | 0 | 0.0 | 9.7 | 0.00 | 0.00 | 0.00 | 81 | 1005.8 |
| 20260506005019 | 26 | 178 | 1.6 | 9.7 | 0.00 | 0.00 | 0.00 | 80 | 1005.7 |
| 20260506004556 | 26 | 175 | 1.6 | 9.7 | 0.00 | 0.00 | 0.00 | 80 | 1005.7 |
| 20260506004018 | 26 | 151 | 3.2 | 11.3 | 0.00 | 0.00 | 0.00 | 80 | 1005.6 |
| 20260506003517 | 26 | 186 | 3.2 | 14.5 | 0.00 | 0.00 | 0.00 | 80 | 1005.6 |
| 20260506003032 | 26 | 193 | 4.8 | 14.5 | 0.00 | 0.00 | 0.00 | 79 | 1005.6 |
| 20260506002519 | 26 | 158 | 1.6 | 14.5 | 0.00 | 0.00 | 0.00 | 79 | 1005.6 |
| 20260506002017 | 26 | 149 | 1.6 | 12.9 | 0.00 | 0.00 | 0.00 | 79 | 1005.7 |
| 20260506001537 | 26 | 0 | 3.2 | 12.9 | 0.00 | 0.00 | 0.00 | 79 | 1005.5 |
| 20260506001018 | 27 | 96 | 3.2 | 12.9 | 0.00 | 0.00 | 0.00 | 79 | 1005.6 |
| 20260506000523 | 27 | 136 | 1.6 | 8.0 | 0.00 | 0.00 | 0.00 | 79 | 1005.6 |
| 20260505235519 | 27 | 206 | 3.2 | 9.7 | 0.00 | 0.00 | 0.00 | 79 | 1005.6 |
| 20260505235017 | 27 | 152 | 3.2 | 16.1 | 0.00 | 0.00 | 0.00 | 79 | 1005.5 |
| 20260505234544 | 27 | 206 | 3.2 | 16.1 | 0.00 | 0.00 | 0.00 | 79 | 1005.6 |
| 20260505234020 | 27 | 200 | 3.2 | 16.1 | 0.00 | 0.00 | 0.00 | 78 | 1005.5 |
| 20260505233517 | 27 | 180 | 3.2 | 9.7 | 0.00 | 0.00 | 0.00 | 78 | 1005.5 |
| 20260505233034 | 27 | 174 | 1.6 | 11.3 | 0.00 | 0.00 | 0.00 | 78 | 1005.6 |
| 20260505232522 | 27 | 171 | 3.2 | 11.3 | 0.00 | 0.00 | 0.00 | 78 | 1005.4 |
| 20260505232019 | 27 | 198 | 1.6 | 11.3 | 0.00 | 0.00 | 0.00 | 78 | 1005.4 |
| 20260505231538 | 27 | 224 | 4.8 | 12.9 | 0.00 | 0.00 | 0.00 | 78 | 1005.4 |
| 20260505231019 | 27 | 167 | 4.8 | 12.9 | 0.00 | 0.00 | 0.00 | 78 | 1005.4 |
| 20260505230515 | 27 | 161 | 4.8 | 12.9 | 0.00 | 0.00 | 0.00 | 78 | 1005.6 |
| 20260505230051 | 27 | 0 | 3.2 | 9.7 | 0.00 | 0.00 | 0.00 | 78 | 1005.6 |
| 20260505225518 | 27 | 160 | 1.6 | 14.5 | 0.00 | 0.00 | 0.00 | 77 | 1005.6 |
| 20260505225017 | 28 | 212 | 1.6 | 14.5 | 0.00 | 0.00 | 0.00 | 76 | 1005.6 |
| 20260505224540 | 28 | 189 | 4.8 | 14.5 | 0.00 | 0.00 | 0.00 | 75 | 1005.4 |
| 20260505224016 | 28 | 120 | 4.8 | 14.5 | 0.00 | 0.00 | 0.00 | 75 | 1005.4 |
| 20260505223516 | 28 | 109 | 6.4 | 12.9 | 0.00 | 0.00 | 0.00 | 75 | 1005.3 |
| 20260505223032 | 28 | 169 | 3.2 | 12.9 | 0.00 | 0.00 | 0.00 | 75 | 1005.4 |
| 20260505222520 | 28 | 223 | 1.6 | 11.3 | 0.00 | 0.00 | 0.00 | 76 | 1005.3 |
| 20260505222017 | 28 | 257 | 1.6 | 11.3 | 0.00 | 0.00 | 0.00 | 76 | 1005.3 |
| 20260505221535 | 28 | 126 | 0.0 | 9.7 | 0.00 | 0.00 | 0.00 | 76 | 1005.4 |
| 20260505221017 | 28 | 241 | 1.6 | 11.3 | 0.00 | 0.00 | 0.00 | 76 | 1005.6 |
| 20260505220518 | 28 | 172 | 1.6 | 12.9 | 0.00 | 0.00 | 0.00 | 76 | 1005.5 |
| 20260505220040 | 28 | 236 | 4.8 | 17.7 | 0.00 | 0.00 | 0.00 | 75 | 1005.4 |
| 20260505215516 | 28 | 177 | 4.8 | 17.7 | 0.00 | 0.00 | 0.00 | 75 | 1005.4 |
| 20260505215015 | 28 | 195 | 4.8 | 17.7 | 0.00 | 0.00 | 0.00 | 74 | 1005.6 |
| 20260505214535 | 28 | 217 | 3.2 | 14.5 | 0.00 | 0.00 | 0.00 | 76 | 1005.7 |
| 20260505214016 | 28 | 194 | 4.8 | 14.5 | 0.00 | 0.00 | 0.00 | 76 | 1005.8 |
| 20260505213515 | 28 | 164 | 4.8 | 14.5 | 0.00 | 0.00 | 0.00 | 76 | 1005.9 |
| 20260505213037 | 28 | 238 | 3.2 | 11.3 | 0.00 | 0.00 | 0.00 | 77 | 1006.0 |
| 20260505212517 | 28 | 0 | 1.6 | 11.3 | 0.00 | 0.00 | 0.00 | 77 | 1006.1 |
| 20260505212018 | 28 | 0 | 3.2 | 19.3 | 0.00 | 0.00 | 0.00 | 76 | 1006.0 |
| 20260505211537 | 28 | 134 | 3.2 | 19.3 | 0.00 | 0.00 | 0.00 | 76 | 1006.1 |
| 20260505211017 | 28 | 119 | 3.2 | 12.9 | 0.00 | 0.00 | 0.00 | 76 | 1006.2 |
| 20260505210517 | 28 | 225 | 1.6 | 12.9 | 0.00 | 0.00 | 0.00 | 76 | 1006.2 |
| 20260505210033 | 28 | 166 | 1.6 | 8.0 | 0.00 | 0.00 | 0.00 | 77 | 1006.2 |
| 20260505205517 | 28 | 25 | 1.6 | 11.3 | 0.00 | 0.00 | 0.00 | 77 | 1006.4 |
| 20260505205019 | 28 | 159 | 3.2 | 11.3 | 0.00 | 0.00 | 0.00 | 77 | 1006.5 |
| 20260505204543 | 28 | 130 | 3.2 | 14.5 | 0.00 | 0.00 | 0.00 | 77 | 1006.6 |
| 20260505204019 | 28 | 218 | 3.2 | 14.5 | 0.00 | 0.00 | 0.00 | 76 | 1006.6 |
| 20260505203519 | 28 | 140 | 3.2 | 9.7 | 0.00 | 0.00 | 0.00 | 76 | 1006.8 |
| 20260505203047 | 28 | 245 | 1.6 | 19.3 | 0.00 | 0.00 | 0.00 | 76 | 1006.9 |
| 20260505202518 | 28 | 292 | 4.8 | 19.3 | 0.00 | 0.00 | 0.00 | 76 | 1006.9 |
| 20260505202016 | 28 | 242 | 3.2 | 12.9 | 0.00 | 0.00 | 0.00 | 76 | 1006.9 |
| 20260505201537 | 28 | 227 | 3.2 | 12.9 | 0.00 | 0.00 | 0.00 | 76 | 1006.9 |
| 20260505201018 | 28 | 0 | 1.6 | 11.3 | 0.00 | 0.00 | 0.00 | 76 | 1006.9 |
| 20260505200518 | 28 | 40 | 3.2 | 14.5 | 0.00 | 0.00 | 0.00 | 76 | 1007.0 |
| 20260505200035 | 28 | 106 | 3.2 | 20.9 | 0.00 | 0.00 | 0.00 | 76 | 1007.0 |
| 20260505195516 | 28 | 238 | 3.2 | 20.9 | 0.00 | 0.00 | 0.00 | 76 | 1007.1 |
| 20260505195018 | 28 | 244 | 3.2 | 19.3 | 0.00 | 0.00 | 0.00 | 77 | 1007.1 |
| 20260505194548 | 28 | 229 | 3.2 | 11.3 | 0.00 | 0.00 | 0.00 | 77 | 1007.1 |
| 20260505194019 | 27 | 224 | 3.2 | 16.1 | 0.00 | 0.00 | 0.00 | 77 | 1007.1 |
| 20260505193517 | 28 | 237 | 3.2 | 17.7 | 0.00 | 0.00 | 0.00 | 77 | 1007.2 |
| 20260505193037 | 28 | 165 | 6.4 | 17.7 | 0.00 | 0.00 | 0.00 | 77 | 1007.3 |
| 20260505192518 | 27 | 199 | 4.8 | 12.9 | 0.00 | 0.00 | 0.00 | 79 | 1007.3 |
| 20260505192017 | 27 | 226 | 1.6 | 12.9 | 0.00 | 0.00 | 0.00 | 79 | 1007.4 |
| 20260505191540 | 27 | 130 | 3.2 | 12.9 | 0.00 | 0.00 | 0.00 | 79 | 1007.4 |
| 20260505191019 | 27 | 178 | 3.2 | 14.5 | 0.00 | 0.00 | 0.00 | 80 | 1007.4 |
| 20260505190520 | 27 | 252 | 3.2 | 16.1 | 0.00 | 0.00 | 0.00 | 79 | 1007.5 |
| 20260505190037 | 27 | 120 | 4.8 | 16.1 | 0.00 | 0.00 | 0.00 | 80 | 1007.5 |
| 20260505185515 | 27 | 144 | 3.2 | 16.1 | 0.00 | 0.00 | 0.00 | 79 | 1007.5 |
| 20260505185021 | 27 | 229 | 4.8 | 12.9 | 0.00 | 0.00 | 0.00 | 79 | 1007.6 |
| 20260505184537 | 27 | 222 | 1.6 | 12.9 | 0.00 | 0.00 | 0.00 | 80 | 1007.7 |
| 20260505184017 | 27 | 199 | 1.6 | 12.9 | 0.00 | 0.00 | 0.00 | 80 | 1007.6 |
| 20260505183518 | 27 | 119 | 3.2 | 14.5 | 0.00 | 0.00 | 0.00 | 80 | 1007.7 |
| 20260505183035 | 27 | 244 | 0.0 | 19.3 | 0.00 | 0.00 | 0.00 | 81 | 1007.8 |
| 20260505182518 | 26 | 194 | 6.4 | 19.3 | 0.00 | 0.00 | 0.00 | 81 | 1007.8 |
| 20260505182017 | 26 | 140 | 4.8 | 12.9 | 0.00 | 0.00 | 0.00 | 80 | 1007.7 |
| 20260505181537 | 26 | 227 | 3.2 | 11.3 | 0.00 | 0.00 | 0.00 | 81 | 1007.7 |
| 20260505181018 | 26 | 221 | 3.2 | 12.9 | 0.00 | 0.00 | 0.00 | 81 | 1007.8 |
| 20260505180517 | 26 | 234 | 4.8 | 12.9 | 0.00 | 0.00 | 0.00 | 81 | 1007.9 |
| 20260505180043 | 26 | 139 | 1.6 | 12.9 | 0.00 | 0.00 | 0.00 | 82 | 1007.8 |
| 20260505175517 | 26 | 0 | 3.2 | 12.9 | 0.00 | 0.00 | 0.00 | 82 | 1007.9 |
| 20260505175018 | 26 | 225 | 3.2 | 14.5 | 0.00 | 0.00 | 0.00 | 82 | 1007.8 |
| 20260505174535 | 26 | 135 | 1.6 | 14.5 | 0.00 | 0.00 | 0.00 | 83 | 1007.9 |
| 20260505174017 | 26 | 178 | 3.2 | 12.9 | 0.00 | 0.00 | 0.00 | 83 | 1008.0 |
| 20260505173519 | 26 | 219 | 3.2 | 14.5 | 0.00 | 0.00 | 0.00 | 83 | 1008.0 |
| 20260505173035 | 26 | 165 | 3.2 | 14.5 | 0.00 | 0.00 | 0.00 | 83 | 1008.0 |
| 20260505172517 | 26 | 193 | 1.6 | 12.9 | 0.00 | 0.00 | 0.00 | 83 | 1008.0 |
| 20260505172016 | 26 | 140 | 1.6 | 12.9 | 0.00 | 0.00 | 0.00 | 83 | 1008.0 |
| 20260505171532 | 26 | 217 | 3.2 | 12.9 | 0.00 | 0.00 | 0.00 | 83 | 1008.1 |
| 20260505171017 | 26 | 236 | 3.2 | 14.5 | 0.00 | 0.00 | 0.00 | 83 | 1008.1 |
| 20260505170516 | 26 | 182 | 4.8 | 14.5 | 0.00 | 0.00 | 0.00 | 83 | 1008.1 |
| 20260505170033 | 25 | 221 | 1.6 | 12.9 | 0.00 | 0.00 | 0.00 | 84 | 1008.1 |
| 20260505165515 | 25 | 233 | 3.2 | 16.1 | 0.00 | 0.00 | 0.00 | 84 | 1008.1 |
| 20260505165015 | 25 | 171 | 3.2 | 17.7 | 0.00 | 0.00 | 0.00 | 84 | 1008.2 |
| 20260505164532 | 25 | 234 | 3.2 | 17.7 | 0.00 | 0.00 | 0.00 | 85 | 1008.2 |
| 20260505164018 | 25 | 174 | 3.2 | 17.7 | 0.00 | 0.00 | 0.00 | 84 | 1008.3 |
| 20260505163519 | 25 | 241 | 4.8 | 17.7 | 0.00 | 0.00 | 0.00 | 84 | 1008.1 |
| 20260505163036 | 25 | 149 | 3.2 | 17.7 | 0.00 | 0.00 | 0.00 | 85 | 1008.3 |
| 20260505162516 | 25 | 148 | 3.2 | 12.9 | 0.00 | 0.00 | 0.00 | 84 | 1008.3 |
| 20260505162019 | 25 | 221 | 1.6 | 14.5 | 0.00 | 0.00 | 0.00 | 85 | 1008.3 |
| 20260505161534 | 25 | 209 | 1.6 | 14.5 | 0.00 | 0.00 | 0.00 | 85 | 1008.5 |
| 20260505161018 | 25 | 146 | 1.6 | 20.9 | 0.00 | 0.00 | 0.00 | 85 | 1008.5 |
| 20260505160518 | 25 | 223 | 3.2 | 20.9 | 0.00 | 0.00 | 0.00 | 84 | 1008.4 |
| 20260505153038 | 24 | 152 | 3.2 | 17.7 | 0.00 | 0.00 | 0.00 | 85 | 1008.1 |
| 20260505152515 | 24 | 168 | 4.8 | 12.9 | 0.00 | 0.00 | 0.00 | 86 | 1008.0 |
| 20260505152021 | 24 | 0 | 1.6 | 12.9 | 0.00 | 0.00 | 0.00 | 86 | 1007.9 |
| 20260505151537 | 23 | 0 | 3.2 | 12.9 | 0.00 | 0.00 | 0.00 | 86 | 1008.1 |
| 20260505151021 | 23 | 243 | 3.2 | 8.0 | 0.00 | 0.00 | 0.00 | 86 | 1008.1 |
| 20260505150520 | 23 | 231 | 1.6 | 12.9 | 0.00 | 0.00 | 0.00 | 87 | 1008.1 |
| 20260505140518 | 22 | 234 | 1.6 | 11.3 | 0.00 | 0.00 | 0.00 | 89 | 1008.0 |
| 20260505125021 | 21 | 0 | 0.0 | 12.9 | 0.00 | 0.00 | 0.00 | 91 | 1007.9 |
| 20260505124550 | 21 | 180 | 1.6 | 12.9 | 0.00 | 0.00 | 0.00 | 91 | 1007.6 |
| 20260505124018 | 21 | 142 | 1.6 | 12.9 | 0.00 | 0.00 | 0.00 | 91 | 1007.3 |
| 20260505123518 | 21 | 182 | 3.2 | 12.9 | 0.00 | 0.00 | 0.00 | 91 | 1007.1 |
| 20260505123049 | 21 | 144 | 4.8 | 12.9 | 0.00 | 0.00 | 0.00 | 91 | 1007.0 |
| 20260505122517 | 21 | 0 | 4.8 | 11.3 | 0.00 | 0.00 | 0.00 | 91 | 1007.1 |
| 20260505122017 | 21 | 194 | 1.6 | 9.7 | 0.00 | 0.00 | 0.00 | 91 | 1007.3 |
| 20260505121604 | 21 | 163 | 0.0 | 9.7 | 0.00 | 0.00 | 0.00 | 91 | 1007.5 |
| 20260505121021 | 21 | 0 | 1.6 | 9.7 | 0.00 | 0.00 | 0.00 | 91 | 1007.4 |
| 20260505120518 | 21 | 0 | 0.0 | 9.7 | 0.00 | 0.00 | 0.00 | 91 | 1007.4 |
| 20260505120035 | 21 | 132 | 1.6 | 11.3 | 0.00 | 0.00 | 0.00 | 91 | 1007.3 |
| 20260505115517 | 21 | 100 | 3.2 | 11.3 | 0.00 | 0.00 | 0.00 | 91 | 1007.3 |
| 20260505115017 | 21 | 173 | 0.0 | 6.4 | 0.00 | 0.00 | 0.00 | 91 | 1007.2 |
| 20260505114534 | 21 | 192 | 0.0 | 9.7 | 0.00 | 0.00 | 0.00 | 91 | 1007.2 |
| 20260505114017 | 21 | 191 | 1.6 | 12.9 | 0.00 | 0.00 | 0.00 | 91 | 1007.0 |
| 20260505113517 | 21 | 181 | 3.2 | 12.9 | 0.00 | 0.00 | 0.00 | 90 | 1006.9 |
| 20260505113036 | 21 | 169 | 3.2 | 9.7 | 0.00 | 0.00 | 0.00 | 90 | 1007.0 |
| 20260505112517 | 21 | 0 | 1.6 | 12.9 | 0.00 | 0.00 | 0.00 | 90 | 1007.3 |
| 20260505112018 | 21 | 209 | 1.6 | 12.9 | 0.00 | 0.00 | 0.00 | 90 | 1007.3 |
| 20260505111539 | 21 | 150 | 1.6 | 9.7 | 0.00 | 0.00 | 0.00 | 90 | 1007.1 |
| 20260505111018 | 21 | 87 | 0.0 | 9.7 | 0.00 | 0.00 | 0.00 | 90 | 1007.1 |